When you browse on this site, cookies collect data to enhance your experience and personalize the content and advertising you see.
Visit our Privacy Policy to learn more. By continuing to use the site, you agree to this use of cookies and data.
  • In Hungary
  • List of Countries
  • For 7 days
  • Water Temperature
  • Satellite Maps
  • Weather Map
  • News
  • Weather Widgets
  • user-avatar
    Login

    Hourly Weather Damienice

    Today, 27 May, Monday

    Time Temperature Precipitation Wind Pressure Humidity
    00:00 +15°C° 0 mm 2 mps 742 mmHg 89%
    01:00 +15°C° 0 mm 2 mps 742 mmHg 90%
    02:00 +15°C° 0 mm 2 mps 742 mmHg 90%
    03:00 +15°C° 0 mm 2 mps 742 mmHg 90%
    04:00 +14°C° 0 mm 2 mps 742 mmHg 90%
    05:00 +16°C° 0 mm 2 mps 742 mmHg 87%
    06:00 +18°C° 0 mm 2 mps 742 mmHg 83%
    07:00 +20°C° 0 mm 2 mps 742 mmHg 80%
    08:00 +21°C° 0.1 mm 2 mps 742 mmHg 72%
    09:00 +24°C° 0.1 mm 2 mps 742 mmHg 63%
    10:00 +26°C° 0.1 mm 2 mps 741 mmHg 55%
    11:00 +26°C° 0 mm 2 mps 741 mmHg 55%
    12:00 +26°C° 0 mm 1 mps 741 mmHg 55%
    13:00 +27°C° 0 mm 1 mps 741 mmHg 54%
    14:00 +27°C° 0 mm 1 mps 740 mmHg 54%
    15:00 +27°C° 0 mm 1 mps 740 mmHg 55%
    16:00 +27°C° 0 mm 2 mps 740 mmHg 55%
    17:00 +25°C° 0 mm 2 mps 739 mmHg 62%
    18:00 +24°C° 0 mm 2 mps 739 mmHg 69%
    19:00 +21°C° 0 mm 2 mps 739 mmHg 76%
    20:00 +20°C° 0 mm 2 mps 739 mmHg 78%
    21:00 +19°C° 0 mm 2 mps 738 mmHg 79%
    22:00 +19°C° 0 mm 2 mps 738 mmHg 81%
    23:00 +18°C° 0 mm 2 mps 738 mmHg 83%

    Tomorrow, 28 May, Tuesday

    Time Temperature Precipitation Wind Pressure Humidity
    00:00 +18°C° 0 mm 2 mps 738 mmHg 84%
    01:00 +17°C° 0 mm 2 mps 738 mmHg 85%
    02:00 +17°C° 0 mm 2 mps 737 mmHg 86%
    03:00 +16°C° 0 mm 2 mps 737 mmHg 87%
    04:00 +16°C° 0 mm 2 mps 737 mmHg 87%
    05:00 +17°C° 0 mm 2 mps 736 mmHg 84%
    06:00 +19°C° 0 mm 2 mps 736 mmHg 81%
    07:00 +20°C° 0 mm 3 mps 736 mmHg 78%
    08:00 +22°C° 0 mm 3 mps 736 mmHg 71%
    09:00 +24°C° 0 mm 3 mps 736 mmHg 65%
    10:00 +26°C° 0 mm 4 mps 736 mmHg 58%
    11:00 +25°C° 0.8 mm 4 mps 736 mmHg 65%
    12:00 +23°C° 0.8 mm 4 mps 735 mmHg 72%
    13:00 +21°C° 0.8 mm 4 mps 735 mmHg 79%
    14:00 +22°C° 0.6 mm 3 mps 735 mmHg 77%
    15:00 +22°C° 0.6 mm 3 mps 735 mmHg 74%
    16:00 +23°C° 0.6 mm 2 mps 735 mmHg 72%
    17:00 +21°C° 1 mm 2 mps 735 mmHg 75%
    18:00 +21°C° 1 mm 1 mps 735 mmHg 79%
    19:00 +20°C° 1 mm 1 mps 734 mmHg 82%
    20:00 +19°C° 0.6 mm 1 mps 735 mmHg 84%
    21:00 +17°C° 0.6 mm 2 mps 735 mmHg 86%
    22:00 +16°C° 0.6 mm 2 mps 736 mmHg 88%
    23:00 +15°C° 0 mm 2 mps 736 mmHg 90%

    Day after tomorrow, 29 May, Wednesday

    Time Temperature Precipitation Wind Pressure Humidity
    00:00 +15°C° 0 mm 2 mps 736 mmHg 91%
    01:00 +14°C° 0 mm 2 mps 737 mmHg 93%
    02:00 +14°C° 0 mm 2 mps 737 mmHg 94%
    03:00 +14°C° 0 mm 2 mps 738 mmHg 95%
    04:00 +13°C° 0 mm 3 mps 738 mmHg 96%
    05:00 +13°C° 0.1 mm 3 mps 739 mmHg 95%
    06:00 +13°C° 0.1 mm 4 mps 739 mmHg 94%
    07:00 +12°C° 0.1 mm 4 mps 740 mmHg 94%
    08:00 +12°C° 0.1 mm 4 mps 741 mmHg 93%
    09:00 +12°C° 0.1 mm 4 mps 741 mmHg 93%
    10:00 +11°C° 0.1 mm 4 mps 742 mmHg 92%
    11:00 +11°C° 0.2 mm 4 mps 742 mmHg 91%
    12:00 +11°C° 0.2 mm 4 mps 743 mmHg 91%
    13:00 +11°C° 0.2 mm 4 mps 743 mmHg 90%
    14:00 +12°C° 0 mm 3 mps 743 mmHg 89%
    15:00 +12°C° 0 mm 3 mps 743 mmHg 87%
    16:00 +12°C° 0 mm 3 mps 743 mmHg 86%
    17:00 +13°C° 0 mm 2 mps 744 mmHg 86%
    18:00 +13°C° 0 mm 1 mps 744 mmHg 87%
    19:00 +13°C° 0 mm 1 mps 744 mmHg 87%
    20:00 +13°C° 0 mm 1 mps 744 mmHg 88%
    21:00 +12°C° 0 mm 1 mps 745 mmHg 88%
    22:00 +12°C° 0 mm 1 mps 745 mmHg 88%
    23:00 +12°C° 0.1 mm 2 mps 745 mmHg 88%

    30 May, Thursday

    Time Temperature Precipitation Wind Pressure Humidity
    00:00 +10°C° 0.1 mm 2 mps 745 mmHg 88%
    01:00 +10°C° 0.1 mm 2 mps 745 mmHg 89%
    02:00 +10°C° 0.4 mm 2 mps 745 mmHg 90%
    03:00 +10°C° 0.4 mm 2 mps 745 mmHg 91%
    04:00 +11°C° 0.4 mm 1 mps 745 mmHg 92%
    05:00 +9°C° 0.3 mm 2 mps 746 mmHg 92%
    06:00 +9°C° 0.3 mm 2 mps 746 mmHg 93%
    07:00 +9°C° 0.3 mm 2 mps 746 mmHg 93%
    08:00 +10°C° 0 mm 2 mps 746 mmHg 90%
    09:00 +12°C° 0 mm 2 mps 746 mmHg 88%
    10:00 +13°C° 0 mm 2 mps 747 mmHg 86%
    11:00 +14°C° 0 mm 2 mps 747 mmHg 81%
    12:00 +14°C° 0 mm 3 mps 747 mmHg 76%
    13:00 +16°C° 0 mm 3 mps 747 mmHg 71%
    14:00 +16°C° 0 mm 3 mps 747 mmHg 68%
    15:00 +17°C° 0 mm 2 mps 747 mmHg 65%
    16:00 +17°C° 0 mm 2 mps 747 mmHg 62%
    17:00 +16°C° 0 mm 2 mps 747 mmHg 66%
    18:00 +15°C° 0 mm 2 mps 747 mmHg 69%
    19:00 +14°C° 0 mm 1 mps 747 mmHg 73%
    20:00 +13°C° 0 mm 1 mps 747 mmHg 72%
    21:00 +12°C° 0 mm 1 mps 747 mmHg 70%
    22:00 +12°C° 0 mm 1 mps 747 mmHg 69%
    23:00 +11°C° 0 mm 1 mps 747 mmHg 70%

    31 May, Friday

    Time Temperature Precipitation Wind Pressure Humidity
    00:00 +10°C° 0 mm 1 mps 747 mmHg 72%
    01:00 +10°C° 0 mm 1 mps 747 mmHg 73%
    02:00 +10°C° 0 mm 1 mps 747 mmHg 72%
    03:00 +10°C° 0 mm 1 mps 747 mmHg 72%
    04:00 +10°C° 0 mm 1 mps 747 mmHg 72%
    05:00 +11°C° 0 mm 1 mps 747 mmHg 70%
    06:00 +12°C° 0 mm 1 mps 747 mmHg 68%
    07:00 +14°C° 0 mm 1 mps 747 mmHg 66%
    08:00 +15°C° 0 mm 1 mps 747 mmHg 64%
    09:00 +16°C° 0 mm 1 mps 747 mmHg 61%
    10:00 +19°C° 0 mm 1 mps 746 mmHg 59%
    11:00 +19°C° 0 mm 1 mps 746 mmHg 59%
    12:00 +20°C° 0 mm 1 mps 746 mmHg 58%
    13:00 +20°C° 0 mm 1 mps 746 mmHg 57%
    14:00 +20°C° 0 mm 1 mps 745 mmHg 59%
    15:00 +20°C° 0 mm 1 mps 745 mmHg 61%
    16:00 +20°C° 0 mm 1 mps 745 mmHg 62%
    17:00 +19°C° 0.1 mm 1 mps 745 mmHg 68%
    18:00 +18°C° 0.1 mm 1 mps 745 mmHg 73%
    19:00 +16°C° 0.1 mm 1 mps 745 mmHg 79%
    20:00 +15°C° 0.1 mm 1 mps 745 mmHg 81%
    21:00 +15°C° 0.1 mm 1 mps 745 mmHg 83%
    22:00 +14°C° 0.1 mm 1 mps 745 mmHg 85%
    23:00 +14°C° 0 mm 1 mps 745 mmHg 84%

    1 June, Saturday

    Time Temperature Precipitation Wind Pressure Humidity
    00:00 +14°C° 0 mm 2 mps 745 mmHg 82%
    01:00 +14°C° 0 mm 2 mps 745 mmHg 81%
    02:00 +13°C° 0.2 mm 3 mps 745 mmHg 86%
    03:00 +12°C° 0.2 mm 4 mps 745 mmHg 90%
    04:00 +12°C° 0.2 mm 5 mps 745 mmHg 94%
    05:00 +12°C° 0.4 mm 5 mps 745 mmHg 94%
    06:00 +10°C° 0.4 mm 5 mps 746 mmHg 94%
    07:00 +11°C° 0.4 mm 4 mps 746 mmHg 94%
    08:00 +11°C° 0.2 mm 4 mps 746 mmHg 93%
    09:00 +11°C° 0.2 mm 4 mps 746 mmHg 92%
    10:00 +11°C° 0.2 mm 4 mps 746 mmHg 92%
    11:00 +11°C° 0.1 mm 4 mps 747 mmHg 91%
    12:00 +11°C° 0.1 mm 4 mps 747 mmHg 90%
    13:00 +12°C° 0.1 mm 4 mps 747 mmHg 89%
    14:00 +12°C° 0.1 mm 4 mps 747 mmHg 88%
    15:00 +13°C° 0.1 mm 4 mps 746 mmHg 87%
    16:00 +13°C° 0.1 mm 3 mps 746 mmHg 86%
    17:00 +13°C° 0.1 mm 3 mps 746 mmHg 87%
    18:00 +14°C° 0.1 mm 2 mps 747 mmHg 87%
    19:00 +14°C° 0.1 mm 2 mps 747 mmHg 88%
    20:00 +14°C° 0.1 mm 2 mps 747 mmHg 88%
    21:00 +13°C° 0.1 mm 2 mps 747 mmHg 89%
    22:00 +13°C° 0.1 mm 2 mps 747 mmHg 89%
    23:00 +13°C° 0 mm 2 mps 747 mmHg 88%
    Show more